Airfield :
LOGIN :

Register | Disclaimer

   EN    FR    IT 

 










Legend :    VFR   Marginal VFR   IFR   Intensive IFR   Very Intensive IFR
Visi :
Ceiling :
>= 8 km
>= 3000ft
5 to 8 km
1000 to 3000 ft
1500m to 5 km
500 to 1000 ft
800 to 1500m
200 to 500 ft
< 800m
< 200 ft
Symbols :   Thunderstorms  Fog  Heavy snow  Heavy precipitations  Wind > 20 kt
SIGMETs :     Misc.  Thunderstorms  Icing  Turbulence  Mountain Waves  Volcanic Ashes







- Airport Elevation : 18 ft
- IATA code : KDL


EEKA - Kardla

CURRENT METAR :
  • 230650Z 26009G20KT 9999 OVC011 01/M00 Q1033

EXPIRED METARs :
  • 230550Z 24011G22KT 9999 OVC009 01/M00 Q1032
  • 230450Z 23011KT 7000 -RA OVC007 00/M00 Q1033

TAF TAF EEKA
Valid from the 23 at 06:00 until the 23 at 12:00 UTC


230500Z 2306/2312 24012KT 9999 OVC012
TEMPO 2306/2307 5000 RA OVC006
TEMPO 2306/2312 26016G26KT
No reported NOTAMs for that airfield.



MET'MAP, your aeronautical weather chart ! - Copyright ORBIFLY December 2007 - Disclaimer

ORBIFLY MET'MAP TEAM :

Programming & Development : Alexandra Zaïnal
Concept & Development : Baudouin d'Aumeries
Co-Development & Prog : Marc-Olivier Méhu
Technical & hardware support : Manuel Goepfert

Contact : metmap@orbifly.com




SOURCES & CREDITS :

   NOAA